Location: Fontenoy
(49.4072°N, 3.2008°E)
Time: 07:44:17
(UTC+00:00)

Meteor 1-11 Rocket - Pass Details

Date: 15 May 2026
Orbit: 829 x 915 km, 81.2° (Epoch: 5 June)

Event Time Altitude Azimuth Distance (km) Brightness Sun altitude
Rises 23:00:08 0° 348° (NNW) 3,457 8.5 -20.9°
Reaches altitude 10° 23:02:36 10° 350° (N) 2,503 7.3 -20.9°
Maximum altitude 23:08:17 77° 77° (ENE) 871 3.7 -21.1°
Enters shadow 23:10:11 43° 155° (SSE) 1,173 4.0 -21.1°
